[[{"header":{"parameterUnit":"m.s-1","parameterCategory":1,"la1":30.2991,"la2":30.254,"lo1":-89.0895,"lo2":-89.0444,"dy":0.0017,"dx":0.0017,"nx":28,"ny":28,"refTime":"2025-09-05T03:00:00:Z","depth":0,"parameterNumber":2,"parameterNumberName":"U-component_of_WINDS"},"data":[0,0,0,0,0,0,0,0,0,0,0,0,0,0,0,0,0,0,0,0,0,0,0,0,0,0,0,0,0,0,0,0,0,0,0,0,0,0,0,0,0,0,0,0,0,0,0,0,0,0,0,0,0,0,0,0,0,0,-1.2831,-1.2832,0,-1.2837,-1.2837,-1.2837,-1.2802,-1.2801,-1.28,-1.2799,-1.2804,-1.2805,-1.2806,0,0,0,0,0,0,0,0,0,0,0,0,0,-1.2792,-1.2793,-1.2831,-1.2832,-1.2832,-1.2837,-1.2837,-1.2837,-1.2802,-1.2801,-1.28,-1.2798,-1.2804,-1.2805,-1.2807,0,0,0,0,0,0,0,0,0,0,0,0,0,-1.2805,-1.2793,-1.2831,-1.2815,-1.2813,-1.2837,-1.2837,-1.2837,-1.2802,-1.2801,-1.2799,-1.2798,-1.2804,-1.2805,-1.2807,-1.2846,0,0,-1.2812,-1.2812,0,0,0,0,0,0,0,0,-1.2804,-1.2806,-1.2817,-1.2816,-1.2814,-1.2817,-1.2825,-1.284,-1.2803,-1.2807,-1.2799,-1.2797,-1.281,-1.2811,-1.2815,-1.2846,-1.2847,-1.2812,-1.2813,-1.2813,-1.2814,0,0,0,0,0,0,0,-1.2803,-1.2806,-1.2833,-1.2817,-1.2816,-1.2807,-1.2807,-1.2828,-1.2816,-1.2806,-1.2804,-1.2805,-1.2809,-1.2814,-1.2815,-1.2847,-1.2812,-1.2813,-1.2814,-1.2815,-1.2911,-1.2913,0,0,0,0,0,0,-1.2804,-1.2805,-1.2833,-1.2834,-1.2805,-1.2809,-1.2809,-1.2818,-1.2816,-1.2814,-1.2806,-1.2803,-1.2812,-1.2813,-1.2815,-1.2861,-1.2813,-1.2815,-1.2816,-1.291,-1.2912,-1.2914,0,0,0,0,0,0,-1.2804,-1.2807,-1.2833,-1.2819,-1.2821,-1.2812,-1.2821,-1.2819,-1.2823,-1.2816,-1.2814,-1.2813,-1.281,-1.2813,-1.2839,-1.2861,-1.2816,-1.2817,-1.2908,-1.291,-1.2913,-1.2954,0,0,0,0,0,0,-1.2803,-1.2807,-1.2822,-1.2819,-1.2822,-1.2857,-1.2823,-1.282,-1.2826,-1.2822,-1.2822,-1.282,-1.2809,-1.2837,-1.284,-1.2862,-1.2818,-1.2906,-1.2909,-1.2912,-1.2951,-1.2958,-1.2964,0,0,0,0,0,-1.2801,-1.2833,-1.2823,-1.2826,-1.284,-1.2858,-1.286,-1.2847,-1.2828,-1.2843,-1.2838,-1.282,-1.2858,-1.284,-1.2844,-1.2866,-1.2904,-1.2908,-1.2912,-1.2948,-1.2956,-1.2964,0,0,0,0,0,0,-1.2839,-1.2833,-1.2821,-1.2853,-1.2856,-1.2852,-1.287,-1.2856,-1.2865,-1.2861,-1.2844,-1.2844,-1.2873,-1.2872,-1.2852,-1.2905,-1.2878,-1.2883,-1.2904,-1.2912,-1.2919,-1.2918,-1.282,0,0,0,0,0,-1.2851,-1.2865,-1.2859,-1.2888,-1.2891,-1.288,-1.2888,-1.2877,-1.288,-1.2881,-1.2879,-1.2882,-1.2895,-1.2903,-1.2915,-1.2951,-1.295,-1.2968,-1.2975,-1.298,-1.2984,-1.3004,-1.3012,-1.2925,-1.2925,-1.2925,0,0,-1.2875,-1.2874,-1.2884,-1.2896,-1.2897,-1.2913,-1.2882,-1.29,-1.2912,-1.2884,-1.2909,-1.2907,-1.291,-1.2941,-1.2955,-1.2941,-1.3008,-1.2985,-1.2989,-1.299,-1.3008,-1.3016,-1.3024,-1.2928,-1.2927,-1.2927,0,0,-1.2929,-1.2929,-1.2953,-1.2955,-1.2958,-1.2951,-1.2957,-1.2955,-1.2953,-1.2978,-1.2957,-1.2971,-1.2993,-1.2996,-1.3001,-1.3056,-1.304,-1.306,-1.3094,-1.3113,-1.312,-1.3126,-1.3146,-1.3153,-1.3065,-1.3065,-1.3065,0,-1.2959,-1.2982,-1.2968,-1.2987,-1.2993,-1.2969,-1.2994,-1.2997,-1.3003,-1.3008,-1.2992,-1.302,-1.302,-1.3052,-1.3066,-1.307,-1.3076,-1.306,-1.312,-1.3126,-1.3131,-1.315,-1.3158,-1.3067,-1.3067,-1.3067,-1.3066,0,-1.302,-1.3036,-1.3055,-1.3062,-1.307,-1.3092,-1.3081,-1.3091,-1.308,-1.3075,-1.3101,-1.31,-1.3111,-1.3118,-1.3108,-1.3149,-1.314,-1.3123,-1.3096,-1.3142,-1.316,-1.3167,-1.3071,-1.307,-1.3069,-1.3069,0,0,-1.3096,-1.3095,-1.3103,-1.3105,-1.3107,-1.3119,-1.3141,-1.3151,-1.316,-1.3166,-1.3183,-1.3203,-1.3187,-1.3192,-1.3182,-1.3199,-1.3243,-1.3179,-1.3179,-1.3191,-1.3289,-1.3302,-1.3311,-1.3232,-1.3234,-1.3235,-1.3289,0,-1.3149,-1.3185,-1.3172,-1.3209,-1.3224,-1.3202,-1.3221,-1.3224,-1.322,-1.3232,-1.3228,-1.3242,-1.322,-1.3223,-1.3238,-1.3234,-1.3262,-1.323,-1.3249,-1.325,-1.3249,-1.332,-1.3334,-1.3384,-1.3295,-1.3297,-1.3297,0,-1.3214,-1.3222,-1.3261,-1.326,-1.3266,-1.3283,-1.3292,-1.3304,-1.3307,-1.3303,-1.3309,-1.3296,-1.3317,-1.329,-1.3319,-1.3297,-1.3304,-1.3304,-1.3305,-1.3306,-1.3276,-1.3323,-1.34,-1.3408,-1.3308,-1.3307,-1.3306,0,-1.3267,-1.3287,-1.3313,-1.3316,-1.3316,-1.3328,-1.3329,-1.3331,-1.3338,-1.3346,-1.3351,-1.3361,-1.3367,-1.3376,-1.3366,-1.3347,-1.3396,-1.3368,-1.3394,-1.3394,-1.3405,-1.3405,-1.3485,-1.341,-1.3409,-1.3409,-1.3409,0,-1.3327,-1.3351,-1.3336,-1.3352,-1.3379,-1.3365,-1.3392,-1.339,-1.3392,-1.3407,-1.3389,-1.3404,-1.3389,-1.3402,-1.3395,-1.342,-1.3423,-1.342,-1.3418,-1.3422,-1.3422,-1.3426,-1.3423,-1.3411,-1.3411,-1.3411,-1.341,0,-1.339,-1.3381,-1.3407,-1.3405,-1.3405,-1.3425,-1.3423,-1.3438,-1.3433,-1.3452,-1.3456,-1.3448,-1.3463,-1.3454,-1.3469,-1.3464,-1.3497,-1.349,-1.3496,-1.3494,-1.352,-1.3518,-1.3606,-1.3617,-1.3535,-1.3535,-1.3536,0,-1.3428,-1.3447,-1.3446,-1.3455,-1.3457,-1.3472,-1.3479,-1.3466,-1.3475,-1.348,-1.3495,-1.3508,-1.3518,-1.3543,-1.3539,-1.3551,-1.3544,-1.3573,-1.3545,-1.3549,-1.3544,-1.3543,-1.3545,-1.3579,-1.358,-1.3581,-1.3582,0,-1.3498,-1.3493,-1.3505,-1.3515,-1.3525,-1.3532,-1.3538,-1.3547,-1.3534,-1.3544,-1.356,-1.3567,-1.3583,-1.3597,-1.3607,-1.3607,-1.3593,-1.3591,-1.3597,-1.3602,-1.3605,-1.3604,-1.3512,-1.3589,-1.3588,-1.3587,-1.3587,-1.3587,-1.3551,-1.3566,-1.3568,-1.3582,-1.3585,-1.3591,-1.3605,-1.3602,-1.3614,-1.3626,-1.3618,-1.3636,-1.3639,-1.3651,-1.3654,-1.3668,-1.3656,-1.3665,-1.3667,-1.367,-1.3674,-1.3602,-1.3669,-1.3669,-1.3669,-1.3669,-1.3669,0,-1.362,-1.362,-1.3633,-1.3642,-1.3653,-1.3638,-1.3644,-1.3654,-1.367,-1.3675,-1.3685,-1.3703,-1.3716,-1.3713,-1.3725,-1.3737,-1.3731,-1.3741,-1.374,-1.3741,-1.3684,-1.3677,-1.3746,-1.3746,-1.3746,-1.3746,-1.3746,-1.3746,-1.3657,-1.3683,-1.3678,-1.3705,-1.3705,-1.3723,-1.3728,-1.3733,-1.3737,-1.3757,-1.3768,-1.3766,-1.3768,-1.378,-1.3792,-1.379,-1.3796,-1.3808,-1.3805,-1.3752,-1.3744,-1.3737,-1.3731,-1.381,-1.381,-1.386,-1.3861,-1.3861]},{"header":{"parameterUnit":"m.s-1","parameterCategory":1,"la1":30.2991,"la2":30.254,"lo1":-89.0895,"lo2":-89.0444,"dy":0.0017,"dx":0.0017,"nx":28,"ny":28,"refTime":"2025-09-05T03:00:00:Z","depth":0,"parameterNumber":3,"parameterNumberName":"V-component_of_WINDS"},"data":[0,0,0,0,0,0,0,0,0,0,0,0,0,0,0,0,0,0,0,0,0,0,0,0,0,0,0,0,0,0,0,0,0,0,0,0,0,0,0,0,0,0,0,0,0,0,0,0,0,0,0,0,0,0,0,0,0,0,2.9128,2.9128,0,2.9109,2.9109,2.9109,2.9063,2.9062,2.9061,2.9061,2.9042,2.9042,2.9043,0,0,0,0,0,0,0,0,0,0,0,0,0,2.9125,2.9125,2.9128,2.9128,2.9128,2.9109,2.9109,2.9109,2.9064,2.9062,2.9061,2.906,2.9042,2.9042,2.9043,0,0,0,0,0,0,0,0,0,0,0,0,0,2.9119,2.9126,2.9128,2.9103,2.91,2.9109,2.9109,2.9109,2.9064,2.9062,2.9061,2.906,2.9041,2.9042,2.9043,2.9075,0,0,2.9044,2.9045,0,0,0,0,0,0,0,0,2.9119,2.9119,2.9107,2.9105,2.9102,2.9087,2.9101,2.9097,2.9064,2.9078,2.9061,2.9059,2.9058,2.9057,2.9057,2.9074,2.9073,2.9044,2.9045,2.9045,2.9045,0,0,0,0,0,0,0,2.9119,2.9119,2.9121,2.9107,2.9104,2.9093,2.909,2.91,2.9076,2.9076,2.9073,2.9071,2.9056,2.9056,2.9056,2.9073,2.9044,2.9045,2.9045,2.9046,2.9114,2.9116,0,0,0,0,0,0,2.9124,2.912,2.9121,2.912,2.9107,2.9094,2.9091,2.9093,2.9076,2.9072,2.9073,2.9069,2.9056,2.9055,2.9055,2.909,2.9045,2.9046,2.9046,2.9113,2.9115,2.9116,0,0,0,0,0,0,2.9124,2.9124,2.9122,2.9119,2.9118,2.9095,2.9099,2.9094,2.9094,2.9073,2.9069,2.9077,2.9055,2.9054,2.907,2.9089,2.9046,2.9046,2.9111,2.9113,2.9115,2.9162,0,0,0,0,0,0,2.9124,2.9124,2.9136,2.912,2.9118,2.9137,2.91,2.9094,2.9095,2.909,2.9076,2.9072,2.9054,2.9069,2.9071,2.9089,2.9047,2.9109,2.9112,2.9115,2.9159,2.9166,2.9172,0,0,0,0,0,2.9124,2.9151,2.9137,2.9138,2.9133,2.9138,2.9138,2.9116,2.9097,2.9108,2.9095,2.9073,2.9087,2.9071,2.9072,2.9091,2.9108,2.9111,2.9115,2.9156,2.9164,2.9171,0,0,0,0,0,0,2.917,2.9148,2.9133,2.9155,2.9149,2.9131,2.9145,2.9126,2.9125,2.9121,2.9094,2.9091,2.911,2.9103,2.9085,2.9121,2.9094,2.9098,2.9125,2.9133,2.9139,2.914,2.9047,0,0,0,0,0,2.9183,2.9189,2.917,2.9191,2.9189,2.9168,2.9169,2.9153,2.9146,2.9143,2.9131,2.9125,2.9128,2.913,2.9132,2.9158,2.9154,2.9172,2.9178,2.9184,2.9186,2.9198,2.9206,2.9127,2.9127,2.9127,0,0,2.921,2.9198,2.9204,2.92,2.9194,2.9201,2.9166,2.9175,2.9179,2.9144,2.9157,2.9149,2.914,2.9161,2.9169,2.9155,2.9207,2.9188,2.9192,2.9192,2.9202,2.921,2.9217,2.9129,2.9129,2.9129,0,0,2.9261,2.9254,2.927,2.9264,2.9254,2.924,2.9244,2.9229,2.9221,2.9234,2.9208,2.9213,2.922,2.9214,2.9212,2.9262,2.9241,2.9263,2.9296,2.9308,2.9314,2.9319,2.9335,2.9342,2.9267,2.9267,2.9267,0,2.9295,2.9304,2.9281,2.9291,2.929,2.9259,2.9275,2.927,2.9262,2.9262,2.9246,2.9253,2.9245,2.9263,2.9275,2.9275,2.9278,2.9264,2.9315,2.932,2.9325,2.934,2.9346,2.9269,2.9269,2.9269,2.9269,0,2.9346,2.9353,2.9367,2.9359,2.936,2.9373,2.9352,2.9356,2.934,2.9327,2.934,2.933,2.9328,2.9332,2.9317,2.9348,2.9339,2.932,2.9292,2.9335,2.9349,2.9355,2.9273,2.9272,2.9271,2.9271,0,0,2.9424,2.9404,2.9409,2.9405,2.9392,2.9397,2.9409,2.9407,2.941,2.9406,2.9414,2.942,2.9402,2.94,2.9384,2.9395,2.9433,2.9374,2.9373,2.9384,2.9465,2.9478,2.9485,2.942,2.9421,2.9422,2.9465,0,2.9471,2.949,2.9469,2.9492,2.9497,2.9468,2.9478,2.9471,2.946,2.9463,2.9451,2.9455,2.9432,2.943,2.9439,2.9426,2.9448,2.9423,2.9426,2.9427,2.9427,2.9492,2.9506,2.9548,2.947,2.9471,2.9472,0,2.9528,2.9525,2.9548,2.9533,2.9535,2.9545,2.9541,2.9545,2.9536,2.9527,2.9525,2.9506,2.9516,2.949,2.9503,2.9486,2.9487,2.9481,2.9482,2.948,2.9451,2.949,2.9561,2.9566,2.948,2.948,2.9479,0,2.9581,2.9583,2.9597,2.9595,2.9578,2.9585,2.9579,2.9569,2.9569,2.9566,2.9566,2.9565,2.9564,2.9563,2.9544,2.9527,2.9559,2.9532,2.9551,2.9551,2.9557,2.9557,2.9627,2.9561,2.9561,2.9561,2.9561,0,2.9634,2.9649,2.962,2.9629,2.9645,2.9621,2.9638,2.9628,2.962,2.9626,2.9601,2.9607,2.9582,2.9585,2.957,2.9583,2.9583,2.9575,2.9571,2.9576,2.9577,2.9575,2.9571,2.9563,2.9562,2.9562,2.9562,0,2.9695,2.9677,2.9689,2.9673,2.9669,2.9681,2.9666,2.9673,2.9661,2.9668,2.9669,2.9649,2.9651,2.9633,2.9632,2.9622,2.9641,2.9632,2.9643,2.964,2.9659,2.9657,2.9729,2.9736,2.9668,2.9668,2.9669,0,2.9729,2.9739,2.9724,2.9726,2.972,2.9724,2.9724,2.9702,2.9702,2.9694,2.9702,2.9702,2.9701,2.9706,2.9692,2.9691,2.9681,2.9706,2.9681,2.9685,2.9679,2.9678,2.9678,2.9711,2.9712,2.9713,2.9713,0,2.9791,2.9781,2.9782,2.9779,2.978,2.9777,2.9772,2.9775,2.9751,2.9754,2.9756,2.9755,2.9754,2.9754,2.975,2.9743,2.9724,2.9722,2.9726,2.973,2.9736,2.9731,2.9656,2.972,2.9719,2.9718,2.9718,2.9718,2.9838,2.9845,2.9835,2.9837,2.9831,2.9827,2.9832,2.982,2.9822,2.9819,2.9806,2.981,2.9801,2.9794,2.9789,2.9792,2.9779,2.9786,2.9787,2.9789,2.9791,2.9737,2.9791,2.9791,2.9791,2.9791,2.9791,0,2.9897,2.9889,2.9891,2.9885,2.9886,2.9868,2.9862,2.9864,2.9868,2.9861,2.9861,2.9863,2.9863,2.9849,2.9847,2.9852,2.9843,2.9852,2.985,2.9849,2.9803,2.9799,2.9859,2.9859,2.9859,2.9859,2.9859,2.9859,2.9927,2.9939,2.9928,2.9937,2.9929,2.9932,2.993,2.9927,2.9921,2.9924,2.9924,2.9915,2.9905,2.9902,2.9902,2.9897,2.9897,2.9909,2.9902,2.9859,2.9852,2.9846,2.9842,2.991,2.991,2.9947,2.9947,2.9947]}]]